EW4479 Weather Reports


time (UTC)temp
C
wind
direction
speed
KPH
gust
KPH
rain 1hr
cm
rain 24hr
cm
rain mn
cm
humidity
%
barometer
mb
20260507093431 11 327 4.8 19.3 0.00 0.20 0.00 84 1015.3
20260507092929 11 290 3.2 19.3 0.00 0.20 0.00 84 1015.2
20260507092429 11 282 6.4 19.3 0.00 0.20 0.00 81 1015.2
20260507091429 11 344 4.8 12.9 0.00 0.20 0.00 81 1015.0
20260507090931 10 329 4.8 14.5 0.00 0.20 0.00 82 1015.1
20260507090429 10 321 1.6 14.5 0.00 0.20 0.00 83 1015.1
20260507085929 10 281 3.2 12.9 0.00 0.20 0.00 84 1014.9
20260507085428 10 288 3.2 12.9 0.00 0.20 0.00 84 1014.9
20260507084931 10 292 3.2 11.3 0.00 0.20 0.00 85 1014.8
20260507084433 10 281 3.2 11.3 0.00 0.20 0.00 86 1014.8
20260507083930 10 304 4.8 11.3 0.00 0.20 0.00 85 1014.6
20260507083432 10 304 4.8 14.5 0.00 0.20 0.00 86 1014.6
20260507082929 10 311 4.8 14.5 0.00 0.20 0.00 86 1014.5
20260507082428 10 296 6.4 14.5 0.00 0.20 0.00 85 1014.4
20260507081929 10 284 4.8 14.5 0.00 0.20 0.00 85 1014.3
20260507080929 10 278 3.2 11.3 0.00 0.20 0.00 85 1014.3
20260507080429 10 277 3.2 14.5 0.00 0.20 0.00 83 1014.2
20260507075928 10 291 4.8 14.5 0.00 0.20 0.00 82 1014.1
20260507074922 10 349 3.2 17.7 0.00 0.20 0.00 81 1013.9
20260507074421 10 273 0.0 17.7 0.00 0.20 0.00 82 1014.1
20260507073922 10 18 4.8 17.7 0.00 0.20 0.00 81 1013.8
20260507073420 11 261 6.4 17.7 0.00 0.20 0.00 80 1013.8
20260507072920 11 323 6.4 17.7 0.00 0.20 0.00 81 1013.8
20260507072419 11 233 1.6 24.1 0.00 0.20 0.00 81 1013.7
20260507071921 11 256 9.7 24.1 0.00 0.20 0.00 80 1013.7
20260507071420 11 265 11.3 22.5 0.00 0.20 0.00 80 1013.6
20260507070921 11 288 4.8 16.1 0.00 0.20 0.00 80 1013.6
20260507070419 11 280 6.4 19.3 0.00 0.20 0.00 81 1013.6
20260507065916 10 270 6.4 20.9 0.00 0.20 0.00 81 1013.6
20260507064914 10 290 3.2 16.1 0.00 0.20 0.00 82 1013.6
20260507064414 10 284 3.2 16.1 0.00 0.20 0.00 83 1013.5
20260507063909 10 302 3.2 12.9 0.00 0.20 0.00 82 1013.5
20260507063408 10 257 4.8 14.5 0.00 0.20 0.00 83 1013.5
20260507062407 10 5 4.8 19.3 0.00 0.20 0.00 84 1013.5
20260507061401 10 284 4.8 17.7 0.00 0.20 0.00 84 1013.3
20260507060901 10 238 9.7 17.7 0.00 0.20 0.00 84 1013.3
20260507055859 10 207 8.0 16.1 0.00 0.20 0.00 84 1013.2
20260507055353 10 238 4.8 12.9 0.00 0.20 0.00 85 1013.2
20260507054847 9 239 6.4 12.9 0.00 0.20 0.00 85 1013.2
20260507054346 9 319 3.2 11.3 0.00 0.20 0.00 85 1013.1
20260507053845 9 272 4.8 11.3 0.00 0.20 0.00 86 1013.1
20260507053344 9 257 3.2 11.3 0.00 0.20 0.00 86 1013.0
20260507052844 9 248 4.8 16.1 0.00 0.20 0.00 86 1013.0
20260507051337 9 265 8.0 12.9 0.00 0.20 0.00 86 1012.8
20260507050835 8 275 6.4 12.9 0.00 0.20 0.00 87 1012.8
20260507050335 8 238 4.8 14.5 0.00 0.20 0.00 87 1012.6
20260507045830 8 270 6.4 19.3 0.00 0.20 0.00 87 1012.6
20260507045329 8 286 9.7 19.3 0.00 0.20 0.00 87 1012.5
20260507044831 8 290 4.8 14.5 0.00 0.20 0.00 87 1012.5
20260507044330 8 258 6.4 12.9 0.00 0.20 0.00 87 1012.4
20260507043830 8 270 6.4 14.5 0.00 0.20 0.00 87 1012.4
20260507043329 8 254 8.0 14.5 0.00 0.20 0.00 87 1012.4
20260507042832 8 259 4.8 12.9 0.00 0.20 0.00 87 1012.4
20260507042329 8 225 4.8 12.9 0.00 0.20 0.00 88 1012.4
20260507041828 8 275 3.2 9.7 0.00 0.20 0.00 88 1012.2
20260507041329 8 217 3.2 9.7 0.00 0.20 0.00 88 1012.2
20260507040829 8 278 4.8 9.7 0.00 0.20 0.00 89 1012.1
20260507040331 8 265 3.2 8.0 0.00 0.20 0.00 89 1012.2
20260507035330 8 225 3.2 11.3 0.00 0.20 0.00 89 1012.2
20260507034829 8 279 1.6 6.4 0.00 0.20 0.00 89 1012.1
20260507034331 8 257 1.6 9.7 0.00 0.20 0.00 89 1012.0
20260507033831 8 269 1.6 9.7 0.00 0.20 0.00 89 1012.0
20260507031828 7 260 6.4 12.9 0.00 0.20 0.00 90 1011.9
20260507031330 7 254 4.8 12.9 0.00 0.20 0.00 91 1011.9
20260507030829 7 275 1.6 12.9 0.00 0.20 0.00 91 1012.0
20260507030329 7 259 4.8 12.9 0.00 0.20 0.00 92 1011.9
20260507025829 7 329 1.6 9.7 0.00 0.20 0.00 92 1011.9
20260507025329 7 263 3.2 9.7 0.00 0.20 0.00 92 1011.9
20260507024828 7 275 3.2 9.7 0.00 0.20 0.00 92 1011.9
20260507023829 7 269 3.2 8.0 0.00 0.20 0.00 92 1011.9
20260507023330 7 236 3.2 9.7 0.00 0.20 0.00 92 1011.7
20260507022828 7 264 3.2 9.7 0.00 0.20 0.00 92 1011.7
20260507022329 7 268 3.2 9.7 0.00 0.20 0.00 92 1011.8
20260507021828 7 279 1.6 6.4 0.00 0.20 0.00 91 1011.9
20260507021343 7 288 0.0 6.4 0.00 0.20 0.00 91 1011.9
20260507020830 7 232 1.6 4.8 0.00 0.20 0.00 91 1011.9
20260507020331 7 269 1.6 4.8 0.00 0.20 0.00 91 1011.8
20260507015832 7 249 0.0 3.2 0.00 0.20 0.00 91 1011.7
20260507014829 7 233 0.0 3.2 0.00 0.20 0.00 90 1011.8
20260507014329 7 268 0.0 4.8 0.00 0.20 0.00 90 1011.8
20260507013830 7 239 0.0 4.8 0.00 0.20 0.00 90 1011.7
20260507013328 7 227 0.0 9.7 0.00 0.20 0.00 90 1011.6
20260507012829 7 250 3.2 9.7 0.00 0.20 0.00 90 1011.6
20260507012328 7 225 1.6 6.4 0.00 0.20 0.00 89 1011.6
20260507011330 8 264 3.2 11.3 0.00 0.20 0.00 89 1011.6
20260507010330 8 271 1.6 4.8 0.00 0.20 0.00 89 1011.6
20260507005829 8 294 0.0 3.2 0.00 0.20 0.00 89 1011.7
20260507005330 8 269 0.0 14.5 0.00 0.20 0.00 89 1011.7
20260507004830 8 250 3.2 14.5 0.00 0.20 0.00 89 1011.7
20260507004329 8 258 4.8 11.3 0.00 0.20 0.00 89 1011.5
20260507003830 8 267 3.2 11.3 0.00 0.20 0.00 89 1011.5
20260507003330 8 263 3.2 11.3 0.00 0.20 0.00 89 1011.6
20260507002829 8 283 4.8 9.7 0.00 0.20 0.00 88 1011.5
20260507002328 8 271 3.2 11.3 0.00 0.20 0.00 88 1011.5
20260507001825 8 278 3.2 11.3 0.00 0.20 0.00 88 1011.5
20260507001319 8 261 3.2 9.7 0.00 0.20 0.00 88 1011.5
20260507000819 8 255 3.2 9.7 0.00 0.20 0.00 87 1011.5
20260507000317 8 247 3.2 11.3 0.00 0.20 0.00 87 1011.6
20260506235816 8 263 4.8 11.3 0.00 0.20 0.00 87 1011.6
20260506235315 8 236 3.2 6.4 0.00 0.20 0.00 87 1011.7
20260506234813 8 281 1.6 11.3 0.00 0.20 0.00 87 1011.7
20260506234313 8 270 4.8 11.3 0.00 0.20 0.00 87 1011.7
20260506233812 8 255 3.2 11.3 0.00 0.20 0.00 87 1011.7
20260506233306 8 273 0.0 9.7 0.00 0.20 0.00 87 1011.6
20260506232806 8 296 3.2 9.7 0.00 0.20 0.00 87 1011.7
20260506232306 8 296 3.2 9.7 0.00 0.20 0.00 87 1011.7
20260506231315 8 283 3.2 14.5 0.00 0.20 0.00 86 1011.6
20260506230803 9 266 6.4 14.5 0.00 0.20 0.00 86 1011.5
20260506230300 9 265 6.4 12.9 0.00 0.20 0.00 86 1011.5
20260506225758 9 276 4.8 12.9 0.00 0.20 0.00 86 1011.5
20260506225251 9 288 4.8 12.9 0.00 0.20 0.00 86 1011.4
20260506224750 9 270 4.8 12.9 0.00 0.20 0.00 86 1011.4
20260506224253 9 261 6.4 12.9 0.00 0.20 0.00 86 1011.4
20260506223745 9 284 6.4 16.1 0.00 0.20 0.00 86 1011.3
20260506223244 9 236 4.8 16.1 0.00 0.20 0.00 86 1011.3
20260506222747 9 289 6.4 12.9 0.00 0.20 0.00 86 1011.3
20260506222242 9 234 4.8 12.9 0.00 0.20 0.00 86 1011.1
20260506221740 9 273 4.8 12.9 0.00 0.20 0.00 86 1011.2
20260506221236 9 277 1.6 12.9 0.00 0.20 0.00 87 1011.2
20260506220731 9 246 4.8 14.5 0.00 0.20 0.00 86 1011.1
20260506220231 9 225 3.2 14.5 0.00 0.20 0.00 86 1011.1
20260506215731 9 219 3.2 16.1 0.00 0.20 0.20 87 1011.0
20260506215231 9 271 8.0 16.1 0.00 0.20 0.20 87 1011.0
20260506214731 9 236 6.4 14.5 0.00 0.20 0.20 87 1010.9
20260506214231 9 268 3.2 11.3 0.00 0.20 0.20 88 1010.9
20260506213731 9 273 3.2 11.3 0.00 0.20 0.20 87 1010.9
20260506213230 8 276 3.2 12.9 0.00 0.20 0.20 87 1010.9
20260506212732 9 281 4.8 12.9 0.00 0.20 0.20 87 1010.9
20260506212229 9 279 3.2 9.7 0.00 0.20 0.20 87 1010.7
20260506211729 8 279 3.2 16.1 0.00 0.20 0.20 88 1010.9
20260506210729 9 264 6.4 14.5 0.00 0.20 0.20 87 1010.9
20260506205729 9 272 4.8 12.9 0.00 0.20 0.20 87 1010.7
20260506205229 9 288 3.2 11.3 0.00 0.20 0.20 87 1010.6
20260506204728 9 300 4.8 11.3 0.00 0.20 0.20 88 1010.7
20260506203730 9 242 6.4 12.9 0.00 0.20 0.20 88 1010.5
20260506203230 9 288 3.2 11.3 0.00 0.20 0.20 88 1010.4
20260506202734 9 248 4.8 12.9 0.00 0.20 0.20 88 1010.4
20260506202229 9 243 4.8 12.9 0.00 0.20 0.20 88 1010.4
20260506201229 9 283 6.4 14.5 0.00 0.20 0.20 88 1010.4
20260506200231 9 281 6.4 12.9 0.00 0.20 0.20 88 1010.4
20260506195729 9 264 3.2 11.3 0.03 0.20 0.20 88 1010.3
20260506194728 9 273 3.2 11.3 0.05 0.20 0.20 88 1010.3
20260506194228 9 279 3.2 14.5 0.05 0.20 0.20 88 1010.3
20260506193729 9 234 4.8 14.5 0.05 0.20 0.20 89 1010.1
20260506193230 9 251 6.4 11.3 0.05 0.20 0.20 89 1010.1
20260506192729 10 270 3.2 12.9 0.05 0.20 0.20 89 1010.0
20260506191729 10 291 3.2 12.9 0.05 0.20 0.20 89 1009.9
20260506191229 10 263 3.2 11.3 0.05 0.20 0.20 89 1009.9
20260506190729 10 281 1.6 11.3 0.05 0.20 0.20 89 1009.8
20260506190229 10 284 4.8 17.7 0.05 0.20 0.20 89 1009.7
20260506185731 10 0 4.8 17.7 0.05 0.15 0.18 88 1009.7
20260506185229 10 279 4.8 12.9 0.05 0.15 0.18 88 1009.6
20260506184729 10 301 3.2 12.9 0.03 0.15 0.15 87 1009.5
20260506184228 10 268 3.2 12.9 0.00 0.15 0.15 86 1009.7
20260506183730 10 278 4.8 12.9 0.00 0.15 0.15 85 1009.5
20260506183243 10 263 3.2 14.5 0.00 0.15 0.15 84 1009.5
20260506182742 10 264 3.2 14.5 0.00 0.15 0.15 84 1009.5
20260506182229 10 277 3.2 11.3 0.00 0.15 0.15 83 1009.5
20260506181728 10 264 3.2 11.3 0.00 0.15 0.15 83 1009.5
20260506180730 10 281 6.4 14.5 0.00 0.15 0.15 83 1009.5
20260506175722 11 266 4.8 16.1 0.00 0.15 0.15 82 1009.5
20260506174718 11 267 6.4 24.1 0.00 0.15 0.15 80 1009.2
20260506174215 11 260 8.0 24.1 0.00 0.15 0.15 80 1009.3
20260506173715 11 285 6.4 25.7 0.00 0.15 0.15 79 1009.0
20260506173216 11 263 12.9 27.4 0.00 0.15 0.15 79 1008.7
20260506172716 11 285 12.9 27.4 0.00 0.15 0.15 78 1008.6
20260506172216 12 261 6.4 20.9 0.00 0.15 0.15 78 1008.3
20260506171710 12 265 8.0 22.5 0.00 0.15 0.15 78 1008.1
20260506171208 12 231 8.0 22.5 0.00 0.15 0.15 79 1008.0
20260506170704 12 309 9.7 22.5 0.00 0.15 0.15 81 1007.9
20260506170208 11 351 8.0 20.9 0.00 0.15 0.15 83 1007.9
20260506165709 11 286 4.8 24.1 0.00 0.15 0.15 84 1007.9
20260506165331 11 264 9.7 24.1 0.00 0.15 0.15 85 1008.0
20260506164832 11 275 9.7 24.1 0.00 0.15 0.15 85 1007.9
20260506164330 11 269 6.4 19.3 0.00 0.15 0.15 85 1007.8
20260506163329 11 248 11.3 25.7 0.00 0.15 0.15 84 1007.7
20260506162831 12 273 9.7 29.0 0.00 0.15 0.15 82 1007.7
20260506162330 12 280 12.9 35.4 0.00 0.15 0.15 79 1007.6
20260506161832 13 288 12.9 35.4 0.00 0.15 0.15 75 1007.6
20260506161330 15 244 6.4 14.5 0.00 0.15 0.15 79 1007.2
20260506160831 15 268 6.4 12.9 0.00 0.15 0.15 79 1006.7
20260506160330 15 265 4.8 11.3 0.00 0.15 0.15 79 1006.7
20260506155331 15 227 4.8 11.3 0.00 0.15 0.15 76 1006.6
20260506154832 16 288 3.2 9.7 0.00 0.15 0.15 75 1006.5
20260506154331 16 253 4.8 9.7 0.00 0.15 0.15 72 1006.3
20260506153329 16 237 3.2 8.0 0.03 0.15 0.15 71 1006.1
20260506152830 16 239 1.6 11.3 0.03 0.15 0.15 72 1006.0
20260506152329 16 241 3.2 11.3 0.03 0.15 0.15 72 1005.9
20260506151831 16 92 3.2 9.7 0.03 0.15 0.15 75 1006.0
20260506151329 16 195 1.6 8.0 0.03 0.15 0.15 76 1006.1
20260506150829 16 80 1.6 8.0 0.05 0.15 0.15 78 1006.0
20260506150329 16 221 3.2 8.0 0.05 0.15 0.15 79 1006.2
20260506145828 15 215 1.6 6.4 0.08 0.08 0.15 81 1006.2
20260506145328 15 186 1.6 4.8 0.10 0.08 0.15 86 1006.2
20260506144830 13 146 0.0 4.8 0.13 0.08 0.15 89 1006.4
20260506144330 13 122 1.6 4.8 0.15 0.08 0.15 89 1006.2
20260506143828 13 119 3.2 4.8 0.15 0.08 0.15 91 1006.1
20260506142829 13 125 1.6 3.2 0.13 0.08 0.13 93 1006.4
20260506142328 12 89 1.6 4.8 0.13 0.08 0.13 92 1006.7
20260506141829 12 114 1.6 11.3 0.13 0.08 0.13 91 1006.6
20260506141329 12 126 3.2 11.3 0.13 0.08 0.13 90 1006.8
20260506140828 13 300 0.0 3.2 0.10 0.08 0.10 89 1007.0
20260506135828 13 278 0.0 9.7 0.05 0.00 0.05 86 1007.1
20260506135329 14 265 3.2 6.4 0.05 0.00 0.05 82 1007.0
20260506134829 15 288 3.2 8.0 0.03 0.00 0.03 80 1006.8
20260506134330 15 327 1.6 9.7 0.00 0.00 0.00 76 1006.5
20260506133828 16 277 3.2 9.7 0.00 0.00 0.00 69 1006.4
20260506133331 16 325 1.6 4.8 0.00 0.00 0.00 68 1006.2
20260506132829 16 339 1.6 4.8 0.00 0.00 0.00 67 1005.9
20260506132331 16 352 0.0 4.8 0.00 0.00 0.00 69 1005.8
20260506131831 16 28 0.0 4.8 0.00 0.00 0.00 69 1005.5
20260506131332 16 19 1.6 3.2 0.00 0.00 0.00 69 1005.6
20260506130831 17 350 0.0 3.2 0.00 0.00 0.00 65 1005.7
20260506130343 16 5 0.0 1.6 0.00 0.00 0.00 67 1005.8
20260506125828 16 5 0.0 1.6 0.00 0.00 0.00 67 1005.7
20260506124829 16 5 1.6 6.4 0.00 0.00 0.00 67 1005.9
20260506124329 16 32 0.0 4.8 0.00 0.00 0.00 68 1005.9
20260506123829 16 43 1.6 4.8 0.00 0.00 0.00 69 1005.9
20260506123329 16 37 0.0 4.8 0.00 0.00 0.00 70 1006.1
20260506122828 16 38 1.6 4.8 0.00 0.00 0.00 68 1006.0
20260506122328 16 106 3.2 6.4 0.00 0.00 0.00 68 1006.0
20260506121831 16 103 3.2 6.4 0.00 0.00 0.00 69 1006.0
20260506120830 16 115 3.2 9.7 0.00 0.00 0.00 68 1006.1
20260506115829 16 95 0.0 4.8 0.00 0.00 0.00 67 1006.4
20260506114832 16 88 0.0 4.8 0.00 0.00 0.00 69 1006.5
20260506114329 16 86 3.2 4.8 0.00 0.00 0.00 68 1006.4
20260506113829 16 28 0.0 6.4 0.00 0.00 0.00 69 1006.5
20260506113329 16 27 0.0 6.4 0.00 0.00 0.00 71 1006.5
20260506112328 17 28 1.6 6.4 0.00 0.00 0.00 64 1006.8
20260506111829 18 94 1.6 6.4 0.00 0.00 0.00 67 1006.7
20260506111329 18 103 3.2 9.7 0.00 0.00 0.00 65 1006.7
20260506110329 17 99 3.2 9.7 0.00 0.00 0.00 66 1007.0
20260506105328 16 104 1.6 4.8 0.00 0.00 0.00 72 1007.1
20260506104830 16 128 0.0 4.8 0.00 0.00 0.00 67 1007.2
20260506104331 16 95 1.6 4.8 0.00 0.00 0.00 71 1007.2
20260506103829 15 31 0.0 4.8 0.00 0.00 0.00 71 1007.1
20260506103329 15 32 0.0 4.8 0.00 0.00 0.00 70 1007.0
20260506102828 15 22 3.2 4.8 0.00 0.00 0.00 72 1007.1
20260506102329 15 109 0.0 9.7 0.00 0.00 0.00 72 1007.3
20260506101329 16 110 1.6 4.8 0.00 0.00 0.00 73 1007.4
20260506095828 16 30 0.0 4.8 0.00 0.00 0.00 71 1007.4
20260506095329 16 17 0.0 8.0 0.00 0.00 0.00 69 1007.5
20260506094831 16 5 1.6 8.0 0.00 0.00 0.00 69 1007.6
20260506094330 15 320 0.0 4.8 0.00 0.00 0.00 71 1007.6
20260506093830 15 319 1.6 4.8 0.00 0.00 0.00 71 1007.7